Location: Melara
(45.0500°N, 11.1833°E)
Time: 21:03:01
(UTC+00:00)

Cosmos 1980 - Pass Details

Date: 26 May 2022
Orbit: 840 x 846 km, 71.0° (Epoch: 03 July)

Event Time Altitude Azimuth Distance (km) Brightness Sun altitude
Exits shadow 00:20:08 48° 208° (SSW) 1,084 3.8 -22.1°
Maximum altitude 00:21:47 87° 294° (WNW) 847 3.6 -22.0°
Drops below altitude 10° 00:27:28 10° 25° (NNE) 2,465 7.3 -21.7°
Sets 00:29:55 0° 26° (NNE) 3,403 8.4 -21.5°
